Location: CCZU
(31.6840°N, 119.9550°E)
Time: 09:34:37
(UTC+08:00)

Tiangong - Visible Passes

Search period start: 25 September 2022 00:00
Search period end: 05 October 2022 00:00
Orbit: 377 x 383 km, 41.5° (Epoch: 24 September)

Date Brightness Start Highest point End Pass type
(mag) Time Alt. Az. Time Alt. Az. Time Alt. Az.
25 Sep 0.4 04:21:33 13° N 04:22:19 14° N 04:24:07 10° NE visible
26 Sep 0.0 04:55:49 10° NW 04:58:19 21° NNE 05:00:49 10° ENE visible
27 Sep 0.6 03:57:26 16° NNE 03:57:26 16° NNE 03:59:00 10° NE visible
28 Sep -0.6 04:31:32 22° NNW 04:32:46 30° NNE 04:35:36 10° E visible
29 Sep 1.4 03:33:35 11° ENE 03:33:35 11° ENE 03:33:50 10° ENE visible
29 Sep -2.2 05:05:44 14° WNW 05:08:21 78° SSW 05:11:28 10° SE visible
30 Sep -0.7 04:07:53 38° ENE 04:07:53 38° ENE 04:10:08 10° ESE visible
01 Oct -1.6 04:42:17 37° SW 04:42:28 38° SW 04:45:24 10° SE visible
